timestamp,wind_dir_avg,wind_spd_max_dir,wind_spd_avg,wind_spd_gust,battery_voltage,lat,long
2018-02-07 00:00:00+00:00,260.0,259.0,7.05,8.89,,47.59359,-54.27349
2018-02-07 00:10:00+00:00,264.0,263.0,7.26,8.47,,47.59359,-54.27349
2018-02-07 00:20:00+00:00,271.0,264.0,8.24,9.07,,47.59359,-54.27349
2018-02-07 00:30:00+00:00,265.0,259.0,9.23,10.69,,47.59359,-54.27349
2018-02-07 00:40:00+00:00,268.0,277.0,7.25,8.04,,47.59359,-54.27349
2018-02-07 00:50:00+00:00,275.0,276.0,8.07,9.48,,47.59359,-54.27349
2018-02-07 01:00:00+00:00,264.0,262.0,6.93,7.79,,47.59359,-54.27349
2018-02-07 01:10:00+00:00,268.0,271.0,7.25,8.09,,47.59359,-54.27349
2018-02-07 01:20:00+00:00,263.0,258.0,7.04,7.87,,47.59359,-54.27349
2018-02-07 01:30:00+00:00,266.0,266.0,5.7,6.53,,47.59359,-54.27349
2018-02-07 01:40:00+00:00,264.0,262.0,6.33,7.22,,47.59359,-54.27349
2018-02-07 01:50:00+00:00,274.0,277.0,6.79,7.54,,47.59359,-54.27349
2018-02-07 02:00:00+00:00,266.0,263.0,8.41,9.78,,47.59359,-54.27349
2018-02-07 02:10:00+00:00,277.0,278.0,8.1,9.47,,47.59359,-54.27349
2018-02-07 02:20:00+00:00,270.0,269.0,6.95,7.86,,47.59359,-54.27349
2018-02-07 02:30:00+00:00,271.0,270.0,7.18,8.7,,47.59359,-54.27349
2018-02-07 02:40:00+00:00,272.0,273.0,6.55,7.17,,47.59359,-54.27349
2018-02-07 02:50:00+00:00,273.0,271.0,6.57,7.28,,47.59359,-54.27349
2018-02-07 03:00:00+00:00,268.0,268.0,7.55,8.43,,47.59359,-54.27349
2018-02-07 03:10:00+00:00,268.0,265.0,7.94,9.74,,47.59359,-54.27349
2018-02-07 03:20:00+00:00,258.0,254.0,7.65,8.52,,47.59359,-54.27349
2018-02-07 03:30:00+00:00,267.0,264.0,7.83,9.13,,47.59359,-54.27349
2018-02-07 03:40:00+00:00,274.0,271.0,7.64,9.03,,47.59359,-54.27349
2018-02-07 03:50:00+00:00,270.0,271.0,7.93,8.55,,47.59359,-54.27349
2018-02-07 04:00:00+00:00,281.0,278.0,6.67,7.99,,47.59359,-54.27349
2018-02-07 04:10:00+00:00,274.0,282.0,6.87,7.96,,47.59359,-54.27349
2018-02-07 04:20:00+00:00,268.0,280.0,6.66,7.77,,47.59359,-54.27349
2018-02-07 04:30:00+00:00,276.0,266.0,6.55,8.54,,47.59359,-54.27349
2018-02-07 04:40:00+00:00,273.0,271.0,7.53,8.25,,47.59359,-54.27349
2018-02-07 04:50:00+00:00,277.0,275.0,6.47,7.68,,47.59359,-54.27349
2018-02-07 05:00:00+00:00,278.0,281.0,6.03,7.08,,47.59359,-54.27349
2018-02-07 05:10:00+00:00,279.0,279.0,6.89,8.08,,47.59359,-54.27349
2018-02-07 05:20:00+00:00,275.0,255.0,4.18,5.1,,47.59359,-54.27349
2018-02-07 05:30:00+00:00,291.0,291.0,4.51,5.82,,47.59359,-54.27349
2018-02-07 05:40:00+00:00,279.0,278.0,2.84,3.41,,47.59359,-54.27349
2018-02-07 05:50:00+00:00,276.0,283.0,4.02,4.96,,47.59359,-54.27349
2018-02-07 06:00:00+00:00,274.0,271.0,3.86,4.38,,47.59359,-54.27349
2018-02-07 06:10:00+00:00,282.0,284.0,4.01,4.77,,47.59359,-54.27349
2018-02-07 06:20:00+00:00,281.0,290.0,2.32,2.97,,47.59359,-54.27349
2018-02-07 06:30:00+00:00,290.0,291.0,3.36,3.94,,47.59359,-54.27349
2018-02-07 06:40:00+00:00,278.0,283.0,3.4,4.7,,47.59359,-54.27349
2018-02-07 06:50:00+00:00,264.0,263.0,3.88,4.69,,47.59359,-54.27349
2018-02-07 07:00:00+00:00,261.0,258.0,3.36,4.12,,47.59359,-54.27349
2018-02-07 07:10:00+00:00,267.0,266.0,2.72,4.15,,47.59359,-54.27349
2018-02-07 07:20:00+00:00,267.0,269.0,4.25,4.84,,47.59359,-54.27349
2018-02-07 07:30:00+00:00,268.0,264.0,3.71,4.6,,47.59359,-54.27349
2018-02-07 07:40:00+00:00,255.0,257.0,3.36,3.73,,47.59359,-54.27349
2018-02-07 07:50:00+00:00,270.0,261.0,3.15,5.15,,47.59359,-54.27349
2018-02-07 08:00:00+00:00,259.0,256.0,2.9,3.23,,47.59359,-54.27349
2018-02-07 08:10:00+00:00,255.0,255.0,2.52,3.22,,47.59359,-54.27349
2018-02-07 08:20:00+00:00,232.0,231.0,2.8,3.21,,47.59359,-54.27349
2018-02-07 08:30:00+00:00,266.0,265.0,2.95,3.45,,47.59359,-54.27349
2018-02-07 08:40:00+00:00,261.0,259.0,2.87,3.07,,47.59359,-54.27349
2018-02-07 08:50:00+00:00,263.0,265.0,2.69,2.99,,47.59359,-54.27349
2018-02-07 09:00:00+00:00,243.0,244.0,2.28,2.76,,47.59359,-54.27349
2018-02-07 09:10:00+00:00,237.0,235.0,2.35,3.09,,47.59359,-54.27349
2018-02-07 09:20:00+00:00,262.0,267.0,3.91,4.54,,47.59359,-54.27349
2018-02-07 09:30:00+00:00,255.0,258.0,3.75,4.82,,47.59359,-54.27349
2018-02-07 09:40:00+00:00,235.0,242.0,4.34,6.13,,47.59359,-54.27349
2018-02-07 09:50:00+00:00,243.0,246.0,3.23,3.68,,47.59359,-54.27349
2018-02-07 10:00:00+00:00,263.0,265.0,2.54,2.95,,47.59359,-54.27349
2018-02-07 10:10:00+00:00,262.0,262.0,3.75,4.42,,47.59359,-54.27349
2018-02-07 10:20:00+00:00,256.0,255.0,3.22,4.0,,47.59359,-54.27349
2018-02-07 10:30:00+00:00,262.0,265.0,2.78,3.24,,47.59359,-54.27349
2018-02-07 10:40:00+00:00,252.0,246.0,2.47,3.43,,47.59359,-54.27349
2018-02-07 10:50:00+00:00,241.0,237.0,2.69,3.18,,47.59359,-54.27349
2018-02-07 11:00:00+00:00,227.0,225.0,2.94,3.37,,47.59359,-54.27349
2018-02-07 11:10:00+00:00,247.0,238.0,2.92,3.57,,47.59359,-54.27349
2018-02-07 11:20:00+00:00,248.0,248.0,2.56,2.99,,47.59359,-54.27349
2018-02-07 11:30:00+00:00,249.0,250.0,2.55,3.18,,47.59359,-54.27349
2018-02-07 11:40:00+00:00,232.0,239.0,2.5,2.87,,47.59359,-54.27349
2018-02-07 11:50:00+00:00,209.0,211.0,2.38,2.8,,47.59359,-54.27349
2018-02-07 12:00:00+00:00,167.0,172.0,1.54,1.89,,47.59359,-54.27349
2018-02-07 12:10:00+00:00,171.0,169.0,1.78,2.08,,47.59359,-54.27349
2018-02-07 12:20:00+00:00,184.0,183.0,2.2,2.94,,47.59359,-54.27349
2018-02-07 12:30:00+00:00,222.0,232.0,2.83,3.97,,47.59359,-54.27349
2018-02-07 12:40:00+00:00,216.0,219.0,4.31,5.17,,47.59359,-54.27349
2018-02-07 12:50:00+00:00,197.0,195.0,4.3,5.11,,47.59359,-54.27349
2018-02-07 13:00:00+00:00,208.0,210.0,4.08,4.93,,47.59359,-54.27349
2018-02-07 13:10:00+00:00,212.0,216.0,4.57,5.21,,47.59359,-54.27349
2018-02-07 13:20:00+00:00,221.0,221.0,4.01,4.92,,47.59359,-54.27349
2018-02-07 13:30:00+00:00,215.0,214.0,3.06,3.4,,47.59359,-54.27349
2018-02-07 13:40:00+00:00,214.0,217.0,4.6,5.27,,47.59359,-54.27349
2018-02-07 13:50:00+00:00,200.0,198.0,4.89,5.85,,47.59359,-54.27349
2018-02-07 14:00:00+00:00,232.0,240.0,3.84,4.29,,47.59359,-54.27349
2018-02-07 14:10:00+00:00,245.0,242.0,4.31,5.13,,47.59359,-54.27349
2018-02-07 14:20:00+00:00,238.0,245.0,5.71,6.92,,47.59359,-54.27349
2018-02-07 14:30:00+00:00,238.0,242.0,5.6,6.48,,47.59359,-54.27349
2018-02-07 14:40:00+00:00,232.0,234.0,5.72,6.34,,47.59359,-54.27349
2018-02-07 14:50:00+00:00,236.0,233.0,5.63,6.52,,47.59359,-54.27349
2018-02-07 15:00:00+00:00,229.0,240.0,4.43,5.57,,47.59359,-54.27349
2018-02-07 15:10:00+00:00,220.0,216.0,4.82,5.62,,47.59359,-54.27349
2018-02-07 15:20:00+00:00,231.0,233.0,5.74,6.39,,47.59359,-54.27349
2018-02-07 15:30:00+00:00,229.0,232.0,4.66,5.46,,47.59359,-54.27349
2018-02-07 15:40:00+00:00,231.0,231.0,5.46,6.46,,47.59359,-54.27349
2018-02-07 15:50:00+00:00,239.0,239.0,6.12,6.75,,47.59359,-54.27349
2018-02-07 16:00:00+00:00,241.0,240.0,5.0,6.6,,47.59359,-54.27349
2018-02-07 16:10:00+00:00,238.0,242.0,5.62,6.43,,47.59359,-54.27349
2018-02-07 16:20:00+00:00,239.0,234.0,4.34,5.05,,47.59359,-54.27349
2018-02-07 16:30:00+00:00,243.0,232.0,3.69,4.39,,47.59359,-54.27349
2018-02-07 16:40:00+00:00,238.0,234.0,3.44,4.01,,47.59359,-54.27349
2018-02-07 16:50:00+00:00,239.0,240.0,5.03,5.85,,47.59359,-54.27349
2018-02-07 17:00:00+00:00,246.0,242.0,5.56,6.38,,47.59359,-54.27349
2018-02-07 17:10:00+00:00,236.0,236.0,4.67,5.23,,47.59359,-54.27349
2018-02-07 17:20:00+00:00,237.0,235.0,3.93,4.59,,47.59359,-54.27349
2018-02-07 17:30:00+00:00,235.0,234.0,4.41,5.0,,47.59359,-54.27349
2018-02-07 17:40:00+00:00,228.0,229.0,5.42,6.42,,47.59359,-54.27349
2018-02-07 17:50:00+00:00,231.0,231.0,6.07,7.71,,47.59359,-54.27349
2018-02-07 18:00:00+00:00,232.0,233.0,6.53,7.04,,47.59359,-54.27349
2018-02-07 18:10:00+00:00,227.0,227.0,6.12,6.9,,47.59359,-54.27349
2018-02-07 18:20:00+00:00,234.0,236.0,5.48,6.04,,47.59359,-54.27349
2018-02-07 18:30:00+00:00,233.0,236.0,5.23,5.87,,47.59359,-54.27349
2018-02-07 18:40:00+00:00,237.0,239.0,4.69,5.38,,47.59359,-54.27349
2018-02-07 18:50:00+00:00,225.0,229.0,4.24,4.86,,47.59359,-54.27349
2018-02-07 19:00:00+00:00,223.0,222.0,4.9,5.62,,47.59359,-54.27349
2018-02-07 19:10:00+00:00,228.0,227.0,4.56,5.2,,47.59359,-54.27349
2018-02-07 19:20:00+00:00,218.0,228.0,4.4,5.28,,47.59359,-54.27349
2018-02-07 19:30:00+00:00,225.0,216.0,4.14,4.92,,47.59359,-54.27349
2018-02-07 19:40:00+00:00,226.0,224.0,4.66,5.4,,47.59359,-54.27349
2018-02-07 19:50:00+00:00,220.0,221.0,5.94,6.54,,47.59359,-54.27349
2018-02-07 20:00:00+00:00,233.0,232.0,6.66,7.2,,47.59359,-54.27349
2018-02-07 20:10:00+00:00,226.0,228.0,6.18,6.89,,47.59359,-54.27349
2018-02-07 20:20:00+00:00,218.0,226.0,6.34,7.18,,47.59359,-54.27349
2018-02-07 20:30:00+00:00,216.0,212.0,6.13,7.11,,47.59359,-54.27349
2018-02-07 20:40:00+00:00,212.0,217.0,6.16,6.84,,47.59359,-54.27349
2018-02-07 20:50:00+00:00,215.0,215.0,6.94,7.77,,47.59359,-54.27349
2018-02-07 21:00:00+00:00,209.0,211.0,6.59,7.04,,47.59359,-54.27349
2018-02-07 21:10:00+00:00,218.0,217.0,6.9,7.63,,47.59359,-54.27349
2018-02-07 21:20:00+00:00,212.0,216.0,5.6,5.96,,47.59359,-54.27349
2018-02-07 21:30:00+00:00,212.0,215.0,4.72,5.01,,47.59359,-54.27349
2018-02-07 21:40:00+00:00,208.0,210.0,5.64,6.42,,47.59359,-54.27349
2018-02-07 21:50:00+00:00,206.0,208.0,4.55,5.35,,47.59359,-54.27349
2018-02-07 22:00:00+00:00,200.0,196.0,4.17,4.66,,47.59359,-54.27349
2018-02-07 22:10:00+00:00,195.0,194.0,5.03,5.65,,47.59359,-54.27349
2018-02-07 22:20:00+00:00,207.0,207.0,4.73,5.28,,47.59359,-54.27349
2018-02-07 22:30:00+00:00,195.0,196.0,4.04,4.69,,47.59359,-54.27349
2018-02-07 22:40:00+00:00,181.0,188.0,4.12,4.78,,47.59359,-54.27349
2018-02-07 22:50:00+00:00,193.0,197.0,4.75,5.27,,47.59359,-54.27349
2018-02-07 23:00:00+00:00,197.0,202.0,7.1,8.01,,47.59359,-54.27349
2018-02-07 23:10:00+00:00,195.0,195.0,6.76,7.51,,47.59359,-54.27349
2018-02-07 23:20:00+00:00,198.0,204.0,6.33,7.1,,47.59359,-54.27349
2018-02-07 23:30:00+00:00,202.0,202.0,7.5,7.99,,47.59359,-54.27349
2018-02-07 23:40:00+00:00,199.0,197.0,7.35,9.7,,47.59359,-54.27349
2018-02-07 23:50:00+00:00,192.0,198.0,6.28,7.0,,47.59359,-54.27349
